QPF
0.01 0.02 0.02 0.02 0.01 0.01 0.01 0.01 0.01 0.01 0.01 0.01 0.01 0.01 0.01 0.01 0.01 0.02 0.02 0.01 0.01 0.01 0.01 0.01 0.01 0.01 0.01 0.01 0.01 0.01 0.02 0.02 0.01 0.01 0.01 0.01 0.00 0.00 0.01 0.00 0.00 0.00 0.00 0.00
0.01 0.01 0.01 0.01 0.01 0.01 0.01 0.01 0.01 0.01 0.01 0.01 0.01 0.01 0.01 0.01 0.01 0.01 0.02 0.02 0.01 0.01 0.01 0.01 0.01 0.01 0.01 0.01 0.00 0.01 0.01 0.01 0.02 0.01 0.01 0.02 0.02 0.02 0.01 0.01 0.00 0.00 0.00 0.00
0.02 0.01 0.01 0.02 0.02 0.02 0.02 0.02 0.02 0.02 0.01 0.01 0.01 0.01 0.01 0.02 0.01 0.01 0.01 0.02 0.01 0.01 0.01 0.01 0.01 0.01 0.01 0.01 0.00 0.00 0.01 0.01 0.01 0.01 0.01 0.01 0.02 0.02 0.02 0.02 0.01 0.00 0.00 0.00
0.02 0.02 0.02 0.02 0.03 0.02 0.02 0.03 0.02 0.02 0.02 0.01 0.01 0.01 0.01 0.01 0.02 0.01 0.01 0.01 0.01 0.01 0.01 0.01 0.01 0.00 0.00 0.00 0.00 0.00 0.00 0.00 0.00 0.01 0.01 0.01 0.01 0.02 0.02 0.02 0.01 0.00 0.00 0.00
0.03 0.03 0.02 0.01 0.02 0.02 0.02 0.03 0.03 0.02 0.02 0.01 0.01 0.01 0.01 0.02 0.02 0.01 0.01 0.01 0.02 0.02 0.01 0.01 0.01 0.01 0.01 0.00 0.00 0.00 0.00 0.00 0.00 0.01 0.01 0.01 0.01 0.01 0.02 0.02 0.01 0.00 0.00 0.00
0.04 0.03 0.02 0.02 0.01 0.02 0.02 0.02 0.02 0.01 0.01 0.01 0.01 0.01 0.01 0.02 0.02 0.01 0.01 0.01 0.02 0.02 0.01 0.01 0.01 0.01 0.01 0.01 0.00 0.01 0.00 0.00 0.00 0.01 0.01 0.01 0.02 0.02 0.02 0.01 0.00 0.00 0.00 0.00
0.03 0.03 0.02 0.02 0.01 0.01 0.02 0.02 0.01 0.01 0.01 0.01 0.01 0.01 0.01 0.02 0.02 0.02 0.02 0.01 0.01 0.02 0.01 0.01 0.01 0.01 0.01 0.00 0.01 0.01 0.01 0.01 0.00 0.00 0.01 0.01 0.01 0.01 0.01 0.01 0.01 0.00 0.00 0.00
0.02 0.03 0.02 0.01 0.01 0.02 0.03 0.02 0.02 0.01 0.01 0.01 0.01 0.01 0.02 0.02 0.02 0.02 0.02 0.01 0.01 0.01 0.01 0.01 0.01 0.00 0.00 0.01 0.01 0.01 0.01 0.01 0.01 0.01 0.01 0.01 0.01 0.01 0.01 0.00 0.00 0.01 0.00 0.00
0.02 0.03 0.03 0.02 0.02 0.03 0.03 0.03 0.02 0.01 0.01 0.01 0.01 0.02 0.02 0.02 0.01 0.01 0.01 0.01 0.01 0.01 0.01 0.01 0.01 0.01 0.01 0.01 0.01 0.01 0.01 0.01 0.01 0.01 0.01 0.01 0.01 0.01 0.01 0.00 0.00 0.00 0.00 0.00
0.02 0.02 0.02 0.01 0.02 0.02 0.02 0.02 0.02 0.01 0.01 0.01 0.02 0.02 0.01 0.01 0.01 0.01 0.01 0.01 0.01 0.01 0.01 0.02 0.01 0.01 0.01 0.01 0.01 0.00 0.01 0.01 0.01 0.01 0.01 0.01 0.01 0.01 0.00 0.00 0.00 0.01 0.01 0.01
0.01 0.01 0.01 0.01 0.01 0.02 0.02 0.01 0.01 0.02 0.01 0.01 0.02 0.02 0.01 0.01 0.01 0.01 0.01 0.01 0.01 0.01 0.01 0.01 0.01 0.01 0.01 0.01 0.01 0.01 0.01 0.01 0.01 0.01 0.01 0.01 0.01 0.01 0.01 0.01 0.01 0.01 0.02 0.01
0.02 0.01 0.01 0.02 0.01 0.01 0.01 0.02 0.02 0.02 0.02 0.02 0.02 0.02 0.02 0.02 0.01 0.02 0.02 0.01 0.01 0.01 0.01 0.01 0.01 0.01 0.01 0.01 0.01 0.01 0.01 0.01 0.01 0.01 0.01 0.01 0.01 0.01 0.00 0.00 0.00 0.01 0.01 0.01
0.02 0.02 0.01 0.01 0.01 0.01 0.01 0.02 0.02 0.02 0.02 0.02 0.02 0.02 0.01 0.01 0.01 0.02 0.02 0.02 0.01 0.01 0.02 0.02 0.01 0.01 0.01 0.01 0.01 0.01 0.01 0.01 0.01 0.01 0.01 0.01 0.01 0.00 0.00 0.00 0.00 0.00 0.00 0.00
0.01 0.01 0.01 0.01 0.01 0.01 0.01 0.01 0.02 0.02 0.02 0.02 0.01 0.01 0.01 0.02 0.02 0.02 0.03 0.03 0.02 0.02 0.02 0.01 0.01 0.01 0.01 0.01 0.01 0.01 0.01 0.01 0.01 0.01 0.01 0.01 0.01 0.00 0.00 0.00 0.00 0.00 0.00 0.00
0.01 0.01 0.01 0.01 0.01 0.01 0.01 0.01 0.01 0.02 0.02 0.02 0.01 0.02 0.02 0.02 0.02 0.03 0.03 0.03 0.02 0.02 0.02 0.02 0.01 0.02 0.01 0.01 0.01 0.01 0.01 0.01 0.01 0.01 0.01 0.01 0.00 0.00 0.00 0.00 0.00 0.00 0.00 0.00
0.01 0.01 0.01 0.01 0.01 0.01 0.01 0.01 0.01 0.01 0.02 0.02 0.02 0.02 0.03 0.02 0.02 0.02 0.02 0.02 0.02 0.02 0.02 0.02 0.02 0.01 0.01 0.01 0.01 0.01 0.01 0.01 0.01 0.01 0.01 0.01 0.00 0.00 0.00 0.00 0.00 0.00 0.00 0.00
0.01 0.01 0.01 0.01 0.01 0.01 0.01 0.01 0.01 0.02 0.02 0.02 0.02 0.02 0.02 0.02 0.02 0.02 0.02 0.02 0.02 0.02 0.02 0.01 0.01 0.01 0.01 0.01 0.01 0.01 0.00 0.00 0.01 0.01 0.01 0.00 0.00 0.00 0.01 0.01 0.01 0.01 0.00 0.01
0.02 0.02 0.02 0.02 0.02 0.02 0.02 0.02 0.01 0.01 0.02 0.02 0.02 0.02 0.02 0.02 0.01 0.02 0.02 0.01 0.01 0.01 0.01 0.01 0.01 0.01 0.01 0.01 0.01 0.00 0.00 0.00 0.00 0.01 0.00 0.00 0.00 0.01 0.01 0.01 0.01 0.01 0.00 0.00
0.02 0.02 0.02 0.02 0.02 0.02 0.02 0.02 0.02 0.01 0.01 0.01 0.01 0.01 0.01 0.01 0.01 0.01 0.01 0.01 0.01 0.01 0.01 0.01 0.01 0.01 0.01 0.00 0.00 0.00 0.00 0.00 0.00 0.00 0.00 0.00 0.00 0.00 0.01 0.01 0.01 0.01 0.00 0.00
0.02 0.02 0.02 0.02 0.02 0.02 0.02 0.02 0.01 0.01 0.01 0.01 0.01 0.01 0.01 0.01 0.01 0.01 0.01 0.01 0.01 0.01 0.01 0.01 0.01 0.01 0.01 0.00 0.00 0.00 0.00 0.00 0.00 0.00 0.00 0.00 0.00 0.00 0.00 0.00 0.00 0.00 0.00 0.00
0.01 0.01 0.01 0.02 0.02 0.02 0.02 0.01 0.01 0.01 0.01 0.01 0.01 0.01 0.01 0.01 0.01 0.01 0.01 0.01 0.01 0.01 0.01 0.01 0.01 0.01 0.01 0.01 0.01 0.01 0.00 0.00 0.00 0.00 0.00 0.00 0.00 0.00 0.00 0.00 0.00 0.00 0.00 0.00
0.01 0.01 0.01 0.01 0.01 0.01 0.01 0.01 0.01 0.01 0.01 0.01 0.01 0.01 0.01 0.01 0.01 0.01 0.01 0.01 0.01 0.01 0.01 0.01 0.01 0.01 0.02 0.01 0.01 0.01 0.00 0.00 0.00 0.00 0.00 0.00 0.00 0.00 0.00 0.00 0.00 0.00 0.00 0.00
0.01 0.01 0.01 0.01 0.01 0.01 0.01 0.01 0.01 0.01 0.01 0.01 0.00 0.00 0.01 0.01 0.01 0.01 0.01 0.01 0.01 0.01 0.01 0.01 0.01 0.01 0.02 0.01 0.01 0.01 0.00 0.00 0.00 0.00 0.00 0.00 0.00 0.00 0.00 0.00 0.00 0.00 0.01 0.01
0.01 0.01 0.01 0.01 0.01 0.01 0.01 0.01 0.01 0.01 0.00 0.00 0.00 0.00 0.00 0.00 0.00 0.01 0.01 0.01 0.01 0.01 0.01 0.01 0.01 0.01 0.01 0.01 0.01 0.00 0.00 0.00 0.00 0.00 0.00 0.00 0.00 0.00 0.00 0.00 0.00 0.00 0.00 0.00
0.01 0.01 0.01 0.01 0.01 0.01 0.01 0.00 0.00 0.00 0.00 0.00 0.00 0.00 0.00 0.00 0.01 0.01 0.00 0.00 0.01 0.00 0.00 0.00 0.01 0.00 0.00 0.00 0.00 0.00 0.00 0.00 0.00 0.01 0.01 0.00 0.00 0.00 0.00 0.00 0.00 0.00 0.00 0.00
0.01 0.01 0.01 0.01 0.01 0.01 0.00 0.00 0.00 0.00 0.00 0.00 0.00 0.00 0.00 0.00 0.00 0.00 0.00 0.00 0.00 0.00 0.00 0.00 0.00 0.00 0.00 0.00 0.00 0.00 0.00 0.00 0.00 0.00 0.00 0.00 0.00 0.00 0.00 0.00 0.00 0.00 0.00 0.01
0.01 0.01 0.01 0.01 0.00 0.00 0.00 0.00 0.00 0.00 0.00 0.00 0.00 0.00 0.00 0.00 0.00 0.00 0.00 0.00 0.00 0.00 0.00 0.00 0.00 0.00 0.00 0.00 0.00 0.00 0.00 0.00 0.00 0.00 0.00 0.00 0.00 0.00 0.00 0.00 0.00 0.00 0.01 0.01
MSLP
997.11 997.54 998.27 999.29 1000.55 1002.00 1003.60 1005.29 1007.01 1008.71 1010.33 1011.82 1013.10 1014.14 1014.87 1015.27 1015.33 1015.07 1014.53 1013.78 1012.90 1011.99 1011.13 1010.40 1009.84 1009.47 1009.29 1009.29 1009.43 1009.66 1009.96 1010.31 1010.70 1011.12 1011.59 1012.13 1012.72 1013.38 1014.08 1014.81 1015.53 1016.23 1016.89 1017.48
998.36 999.13 1000.25 1001.66 1003.27 1005.01 1006.79 1008.53 1010.18 1011.69 1013.02 1014.14 1015.03 1015.68 1016.08 1016.22 1016.13 1015.82 1015.31 1014.67 1013.93 1013.16 1012.42 1011.74 1011.18 1010.74 1010.43 1010.26 1010.20 1010.24 1010.36 1010.57 1010.84 1011.19 1011.61 1012.11 1012.68 1013.32 1013.99 1014.68 1015.36 1016.02 1016.63 1017.20
1000.36 1001.54 1003.05 1004.82 1006.75 1008.70 1010.58 1012.30 1013.79 1015.02 1015.96 1016.64 1017.07 1017.27 1017.29 1017.15 1016.88 1016.50 1016.02 1015.48 1014.90 1014.28 1013.67 1013.09 1012.54 1012.06 1011.65 1011.33 1011.09 1010.96 1010.92 1010.98 1011.15 1011.42 1011.78 1012.24 1012.77 1013.36 1013.98 1014.62 1015.25 1015.85 1016.42 1016.96
1003.14 1004.68 1006.53 1008.58 1010.70 1012.76 1014.64 1016.24 1017.49 1018.38 1018.92 1019.15 1019.11 1018.88 1018.54 1018.12 1017.68 1017.23 1016.78 1016.34 1015.89 1015.43 1014.94 1014.44 1013.93 1013.41 1012.92 1012.48 1012.10 1011.82 1011.64 1011.58 1011.65 1011.84 1012.14 1012.54 1013.01 1013.54 1014.09 1014.66 1015.21 1015.75 1016.27 1016.78
1006.61 1008.39 1010.43 1012.61 1014.79 1016.82 1018.58 1019.98 1020.95 1021.50 1021.65 1021.47 1021.03 1020.45 1019.80 1019.17 1018.59 1018.10 1017.68 1017.32 1016.98 1016.63 1016.25 1015.81 1015.31 1014.77 1014.21 1013.67 1013.18 1012.78 1012.49 1012.34 1012.33 1012.45 1012.69 1013.02 1013.43 1013.88 1014.35 1014.82 1015.29 1015.76 1016.22 1016.69
1010.59 1012.46 1014.52 1016.65 1018.71 1020.57 1022.11 1023.24 1023.92 1024.15 1023.98 1023.48 1022.75 1021.92 1021.08 1020.30 1019.65 1019.14 1018.75 1018.45 1018.19 1017.91 1017.58 1017.18 1016.68 1016.11 1015.49 1014.87 1014.30 1013.82 1013.45 1013.23 1013.16 1013.23 1013.41 1013.69 1014.02 1014.38 1014.76 1015.14 1015.51 1015.90 1016.29 1016.71
1014.89 1016.66 1018.54 1020.44 1022.24 1023.80 1025.04 1025.87 1026.26 1026.23 1025.82 1025.12 1024.23 1023.27 1022.34 1021.52 1020.85 1020.35 1019.98 1019.72 1019.50 1019.25 1018.94 1018.53 1018.01 1017.39 1016.73 1016.05 1015.43 1014.89 1014.49 1014.23 1014.12 1014.15 1014.28 1014.50 1014.76 1015.04 1015.32 1015.60 1015.88 1016.18 1016.51 1016.89
1019.24 1020.75 1022.30 1023.83 1025.23 1026.42 1027.30 1027.83 1027.97 1027.75 1027.20 1026.42 1025.48 1024.51 1023.60 1022.80 1022.16 1021.68 1021.34 1021.09 1020.86 1020.61 1020.27 1019.82 1019.26 1018.61 1017.91 1017.20 1016.54 1015.99 1015.57 1015.29 1015.17 1015.17 1015.27 1015.43 1015.62 1015.82 1016.02 1016.21 1016.40 1016.62 1016.89 1017.21
1023.39 1024.52 1025.64 1026.71 1027.66 1028.43 1028.97 1029.22 1029.16 1028.82 1028.23 1027.45 1026.57 1025.67 1024.84 1024.11 1023.53 1023.08 1022.75 1022.48 1022.22 1021.92 1021.53 1021.03 1020.43 1019.74 1019.02 1018.30 1017.65 1017.09 1016.68 1016.41 1016.27 1016.25 1016.32 1016.43 1016.56 1016.69 1016.81 1016.92 1017.05 1017.20 1017.41 1017.69
1027.11 1027.81 1028.47 1029.06 1029.58 1029.96 1030.18 1030.20 1030.01 1029.61 1029.04 1028.34 1027.57 1026.79 1026.06 1025.43 1024.90 1024.47 1024.12 1023.82 1023.50 1023.13 1022.67 1022.12 1021.48 1020.78 1020.05 1019.35 1018.72 1018.19 1017.80 1017.53 1017.40 1017.36 1017.39 1017.46 1017.53 1017.60 1017.66 1017.71 1017.78 1017.88 1018.05 1018.29
1030.22 1030.52 1030.75 1030.93 1031.06 1031.12 1031.09 1030.95 1030.69 1030.29 1029.78 1029.19 1028.54 1027.88 1027.26 1026.69 1026.20 1025.77 1025.38 1025.01 1024.61 1024.17 1023.65 1023.06 1022.40 1021.71 1021.00 1020.34 1019.75 1019.26 1018.90 1018.65 1018.51 1018.45 1018.44 1018.46 1018.49 1018.50 1018.51 1018.52 1018.55 1018.62 1018.76 1018.98
1032.62 1032.59 1032.50 1032.37 1032.22 1032.05 1031.86 1031.63 1031.34 1030.97 1030.54 1030.04 1029.50 1028.94 1028.38 1027.85 1027.35 1026.88 1026.43 1025.97 1025.50 1024.99 1024.42 1023.81 1023.16 1022.49 1021.84 1021.24 1020.70 1020.27 1019.93 1019.70 1019.55 1019.46 1019.42 1019.39 1019.37 1019.34 1019.31 1019.29 1019.30 1019.36 1019.49 1019.68
1034.31 1034.07 1033.77 1033.44 1033.13 1032.83 1032.56 1032.30 1032.01 1031.69 1031.32 1030.89 1030.42 1029.91 1029.37 1028.83 1028.28 1027.74 1027.21 1026.67 1026.12 1025.56 1024.97 1024.35 1023.73 1023.12 1022.54 1022.01 1021.55 1021.17 1020.86 1020.64 1020.48 1020.37 1020.28 1020.21 1020.15 1020.09 1020.03 1020.00 1020.00 1020.05 1020.17 1020.35
1035.38 1035.03 1034.63 1034.21 1033.83 1033.49 1033.20 1032.93 1032.66 1032.38 1032.05 1031.66 1031.20 1030.69 1030.14 1029.54 1028.93 1028.31 1027.69 1027.07 1026.46 1025.86 1025.26 1024.68 1024.11 1023.57 1023.07 1022.62 1022.23 1021.90 1021.63 1021.42 1021.25 1021.11 1020.99 1020.89 1020.79 1020.70 1020.64 1020.60 1020.60 1020.65 1020.76 1020.92
1035.95 1035.57 1035.14 1034.71 1034.33 1033.99 1033.70 1033.45 1033.20 1032.93 1032.61 1032.22 1031.75 1031.21 1030.60 1029.94 1029.25 1028.55 1027.85 1027.17 1026.52 1025.90 1025.32 1024.78 1024.27 1023.81 1023.40 1023.03 1022.71 1022.43 1022.20 1021.99 1021.82 1021.66 1021.52 1021.39 1021.27 1021.17 1021.10 1021.06 1021.07 1021.12 1021.22 1021.36
1036.14 1035.78 1035.37 1034.96 1034.59 1034.27 1034.00 1033.75 1033.50 1033.22 1032.88 1032.47 1031.96 1031.37 1030.71 1029.98 1029.23 1028.47 1027.72 1027.01 1026.34 1025.73 1025.17 1024.68 1024.24 1023.85 1023.51 1023.22 1022.96 1022.73 1022.52 1022.33 1022.16 1021.99 1021.84 1021.70 1021.58 1021.49 1021.42 1021.39 1021.39 1021.44 1021.53 1021.64
1036.09 1035.74 1035.35 1034.96 1034.60 1034.29 1034.00 1033.74 1033.46 1033.15 1032.78 1032.33 1031.79 1031.15 1030.45 1029.69 1028.90 1028.11 1027.34 1026.62 1025.97 1025.38 1024.86 1024.42 1024.03 1023.71 1023.43 1023.19 1022.97 1022.77 1022.59 1022.42 1022.25 1022.09 1021.95 1021.82 1021.71 1021.62 1021.57 1021.55 1021.56 1021.60 1021.67 1021.75
1035.89 1035.53 1035.13 1034.72 1034.34 1034.00 1033.68 1033.37 1033.05 1032.69 1032.28 1031.80 1031.23 1030.58 1029.86 1029.10 1028.32 1027.54 1026.79 1026.10 1025.47 1024.92 1024.44 1024.04 1023.70 1023.41 1023.17 1022.96 1022.77 1022.59 1022.42 1022.26 1022.11 1021.97 1021.84 1021.73 1021.64 1021.58 1021.55 1021.54 1021.56 1021.59 1021.64 1021.69
1035.56 1035.16 1034.72 1034.26 1033.83 1033.42 1033.03 1032.66 1032.28 1031.88 1031.43 1030.93 1030.35 1029.72 1029.03 1028.31 1027.57 1026.84 1026.15 1025.50 1024.92 1024.41 1023.96 1023.58 1023.27 1023.00 1022.76 1022.56 1022.37 1022.20 1022.04 1021.89 1021.75 1021.63 1021.52 1021.44 1021.38 1021.35 1021.34 1021.34 1021.37 1021.40 1021.43 1021.45
1035.13 1034.66 1034.15 1033.62 1033.11 1032.61 1032.15 1031.71 1031.27 1030.83 1030.36 1029.85 1029.30 1028.70 1028.07 1027.41 1026.75 1026.09 1025.47 1024.88 1024.35 1023.88 1023.46 1023.10 1022.78 1022.50 1022.26 1022.04 1021.83 1021.65 1021.48 1021.33 1021.20 1021.09 1021.01 1020.95 1020.92 1020.92 1020.93 1020.95 1020.99 1021.02 1021.04 1021.05
1034.58 1034.05 1033.46 1032.85 1032.25 1031.68 1031.15 1030.64 1030.16 1029.68 1029.20 1028.71 1028.19 1027.65 1027.08 1026.50 1025.92 1025.35 1024.80 1024.27 1023.79 1023.35 1022.94 1022.58 1022.25 1021.95 1021.67 1021.42 1021.18 1020.97 1020.79 1020.63 1020.50 1020.40 1020.33 1020.29 1020.29 1020.30 1020.34 1020.38 1020.42 1020.46 1020.49 1020.51
1033.90 1033.31 1032.66 1032.00 1031.34 1030.72 1030.13 1029.58 1029.07 1028.58 1028.10 1027.62 1027.14 1026.65 1026.15 1025.64 1025.14 1024.63 1024.14 1023.67 1023.22 1022.79 1022.39 1022.02 1021.66 1021.33 1021.02 1020.72 1020.46 1020.21 1020.00 1019.82 1019.68 1019.58 1019.52 1019.49 1019.50 1019.54 1019.59 1019.65 1019.71 1019.76 1019.81 1019.84
1033.10 1032.48 1031.81 1031.12 1030.45 1029.80 1029.19 1028.63 1028.10 1027.61 1027.14 1026.68 1026.22 1025.77 1025.31 1024.85 1024.38 1023.93 1023.47 1023.03 1022.60 1022.18 1021.78 1021.39 1021.01 1020.65 1020.30 1019.97 1019.67 1019.39 1019.15 1018.96 1018.80 1018.69 1018.63 1018.61 1018.62 1018.66 1018.73 1018.80 1018.88 1018.96 1019.03 1019.09
1032.19 1031.57 1030.92 1030.25 1029.60 1028.97 1028.38 1027.82 1027.31 1026.82 1026.35 1025.89 1025.44 1024.99 1024.55 1024.10 1023.65 1023.20 1022.76 1022.33 1021.90 1021.48 1021.07 1020.67 1020.27 1019.89 1019.52 1019.17 1018.84 1018.55 1018.29 1018.08 1017.91 1017.79 1017.72 1017.70 1017.71 1017.76 1017.83 1017.92 1018.02 1018.12 1018.22 1018.32
1031.21 1030.63 1030.03 1029.42 1028.82 1028.24 1027.69 1027.17 1026.66 1026.18 1025.71 1025.24 1024.77 1024.30 1023.83 1023.36 1022.90 1022.44 1021.99 1021.54 1021.11 1020.68 1020.27 1019.86 1019.46 1019.07 1018.70 1018.34 1018.01 1017.71 1017.45 1017.23 1017.05 1016.93 1016.85 1016.83 1016.84 1016.89 1016.97 1017.08 1017.19 1017.31 1017.44 1017.56
1030.21 1029.69 1029.15 1028.62 1028.09 1027.59 1027.09 1026.61 1026.13 1025.65 1025.16 1024.66 1024.16 1023.65 1023.13 1022.62 1022.11 1021.61 1021.14 1020.67 1020.23 1019.80 1019.38 1018.98 1018.60 1018.22 1017.86 1017.53 1017.21 1016.92 1016.66 1016.45 1016.28 1016.16 1016.08 1016.05 1016.07 1016.13 1016.21 1016.32 1016.44 1016.58 1016.72 1016.85
1029.22 1028.76 1028.30 1027.85 1027.41 1026.98 1026.54 1026.09 1025.63 1025.14 1024.64 1024.10 1023.55 1022.99 1022.41 1021.85 1021.29 1020.75 1020.24 1019.76 1019.30 1018.88 1018.47 1018.09 1017.73 1017.39 1017.06 1016.75 1016.46 1016.20 1015.96 1015.77 1015.61 1015.50 1015.43 1015.41 1015.42 1015.47 1015.56 1015.66 1015.79 1015.92 1016.05 1016.19
Thickness
5445 5443 5442 5443 5441 5439 5443 5456 5462 5468 5461 5460 5453 5447 5444 5440 5437 5433 5429 5425 5421 5417 5414 5410 5406 5403 5399 5395 5391 5388 5385 5381 5378 5374 5371 5367 5364 5361 5358 5355 5352 5350 5348 5345
5432 5433 5432 5429 5434 5433 5433 5437 5440 5443 5445 5442 5435 5431 5428 5426 5423 5421 5419 5414 5409 5406 5402 5399 5395 5392 5387 5384 5380 5376 5373 5369 5366 5362 5359 5356 5353 5350 5347 5344 5341 5338 5336 5334
5435 5425 5424 5430 5431 5425 5423 5422 5427 5433 5433 5423 5421 5418 5416 5413 5410 5408 5406 5402 5397 5394 5391 5387 5383 5379 5376 5372 5368 5364 5361 5357 5354 5351 5348 5345 5341 5338 5335 5332 5329 5327 5325 5322
5419 5417 5417 5432 5413 5414 5411 5409 5407 5409 5408 5408 5406 5403 5399 5398 5396 5395 5392 5389 5385 5381 5377 5374 5370 5366 5363 5359 5356 5352 5349 5345 5342 5339 5337 5333 5330 5327 5323 5320 5318 5315 5312 5310
5407 5414 5421 5418 5402 5394 5398 5401 5395 5394 5395 5393 5390 5392 5394 5388 5385 5382 5379 5376 5372 5368 5364 5361 5357 5353 5350 5346 5343 5340 5337 5333 5331 5328 5325 5321 5318 5315 5311 5308 5306 5303 5300 5297
5395 5405 5412 5410 5386 5380 5389 5400 5388 5383 5382 5381 5382 5396 5394 5375 5370 5368 5365 5362 5358 5354 5351 5347 5344 5340 5336 5333 5330 5327 5324 5320 5317 5314 5312 5309 5305 5302 5299 5296 5293 5290 5287 5285
5384 5389 5395 5380 5369 5375 5391 5393 5374 5371 5370 5369 5371 5374 5365 5358 5355 5353 5351 5348 5345 5341 5338 5334 5330 5326 5323 5319 5316 5312 5309 5306 5304 5301 5298 5295 5292 5289 5286 5283 5280 5278 5276 5274
5371 5376 5381 5362 5361 5367 5370 5362 5359 5358 5357 5355 5352 5348 5346 5344 5341 5339 5336 5334 5331 5328 5324 5320 5317 5313 5310 5306 5302 5298 5296 5293 5290 5287 5284 5281 5278 5275 5272 5270 5268 5266 5264 5262
5361 5367 5358 5350 5350 5347 5346 5347 5347 5346 5344 5341 5337 5335 5333 5331 5328 5326 5323 5320 5317 5314 5310 5306 5302 5299 5296 5291 5287 5284 5282 5279 5276 5273 5270 5267 5264 5262 5260 5257 5255 5254 5252 5250
5344 5348 5343 5338 5336 5334 5333 5332 5332 5331 5330 5328 5325 5323 5321 5318 5315 5312 5309 5306 5303 5300 5296 5292 5287 5284 5280 5277 5273 5271 5268 5265 5262 5259 5256 5254 5251 5249 5248 5246 5244 5242 5240 5239
5335 5336 5331 5331 5326 5323 5321 5320 5318 5317 5316 5314 5313 5310 5308 5305 5301 5298 5294 5291 5288 5285 5281 5277 5273 5269 5266 5262 5260 5257 5255 5251 5248 5245 5243 5241 5239 5237 5235 5233 5231 5230 5228 5227
5336 5327 5322 5322 5316 5311 5309 5307 5305 5303 5302 5301 5299 5296 5294 5290 5287 5283 5279 5276 5272 5269 5266 5262 5258 5255 5252 5249 5246 5244 5241 5238 5236 5233 5231 5228 5227 5225 5222 5221 5219 5217 5216 5214
5311 5308 5305 5303 5301 5298 5295 5293 5291 5289 5288 5286 5284 5282 5280 5277 5273 5269 5265 5262 5258 5255 5251 5248 5244 5241 5238 5235 5233 5230 5228 5226 5223 5221 5218 5216 5215 5213 5212 5210 5208 5206 5205 5203
5295 5293 5293 5291 5287 5283 5281 5279 5277 5275 5273 5271 5269 5267 5265 5262 5259 5255 5251 5247 5244 5241 5238 5234 5231 5228 5225 5222 5220 5218 5215 5213 5211 5209 5206 5204 5203 5201 5200 5199 5198 5196 5194 5192
5284 5283 5281 5276 5272 5270 5268 5267 5265 5262 5260 5257 5255 5253 5251 5248 5244 5240 5237 5233 5230 5227 5224 5221 5218 5215 5212 5210 5208 5205 5203 5201 5198 5196 5194 5192 5191 5189 5188 5186 5185 5185 5183 5182
5271 5269 5266 5264 5261 5258 5256 5255 5253 5250 5247 5245 5242 5240 5237 5234 5230 5227 5223 5220 5218 5216 5212 5209 5206 5203 5200 5198 5196 5194 5191 5189 5187 5185 5182 5180 5178 5177 5175 5174 5173 5173 5172 5171
5261 5260 5256 5253 5251 5248 5245 5243 5241 5238 5235 5233 5230 5227 5224 5221 5218 5214 5210 5207 5204 5202 5200 5198 5195 5192 5189 5186 5184 5183 5180 5177 5175 5172 5170 5167 5165 5164 5163 5162 5161 5160 5160 5158
5252 5251 5248 5245 5242 5238 5235 5232 5229 5227 5224 5221 5218 5215 5212 5210 5207 5203 5199 5196 5193 5191 5189 5187 5184 5182 5179 5176 5174 5171 5169 5166 5163 5160 5158 5155 5154 5152 5151 5150 5149 5148 5147 5147
5242 5240 5238 5235 5232 5228 5224 5221 5218 5215 5212 5209 5207 5204 5201 5198 5195 5192 5188 5185 5183 5182 5180 5177 5175 5172 5169 5166 5164 5161 5158 5155 5152 5149 5146 5144 5142 5141 5139 5138 5137 5136 5136 5135
5232 5230 5228 5225 5221 5218 5214 5211 5208 5205 5202 5199 5196 5193 5190 5187 5184 5180 5178 5176 5174 5172 5169 5167 5165 5162 5160 5157 5154 5151 5148 5144 5141 5138 5135 5133 5131 5129 5128 5127 5126 5125 5125 5125
5223 5221 5218 5215 5211 5208 5205 5202 5198 5195 5192 5189 5186 5183 5180 5176 5173 5170 5168 5168 5165 5161 5159 5157 5155 5153 5150 5147 5144 5141 5138 5134 5131 5128 5125 5123 5121 5119 5118 5117 5116 5115 5115 5115
5214 5212 5209 5206 5202 5199 5196 5192 5189 5186 5182 5180 5176 5173 5169 5166 5163 5161 5158 5157 5155 5152 5150 5148 5146 5144 5141 5138 5135 5132 5128 5125 5121 5119 5116 5114 5112 5110 5109 5108 5107 5106 5106 5106
5206 5203 5200 5197 5194 5191 5186 5183 5179 5176 5173 5170 5167 5164 5161 5158 5155 5153 5152 5148 5145 5143 5141 5139 5137 5135 5133 5129 5125 5122 5119 5116 5113 5110 5107 5105 5103 5101 5100 5099 5098 5098 5097 5097
5198 5195 5192 5188 5185 5182 5179 5175 5171 5168 5164 5161 5158 5155 5152 5149 5147 5144 5141 5139 5137 5135 5133 5130 5128 5126 5123 5119 5116 5113 5110 5107 5104 5101 5099 5097 5095 5093 5091 5090 5090 5090 5089 5089
5189 5186 5183 5180 5178 5175 5171 5166 5162 5159 5156 5153 5150 5146 5143 5140 5138 5135 5132 5130 5128 5126 5124 5121 5119 5117 5113 5110 5107 5104 5101 5098 5096 5093 5091 5089 5087 5085 5084 5083 5082 5082 5082 5082
5181 5178 5176 5172 5169 5166 5162 5158 5155 5152 5149 5146 5143 5139 5135 5132 5129 5127 5124 5122 5119 5117 5115 5112 5110 5107 5104 5102 5099 5096 5093 5091 5089 5086 5084 5082 5081 5079 5078 5077 5076 5076 5076 5076
5172 5169 5166 5163 5159 5156 5153 5150 5147 5144 5140 5137 5134 5131 5128 5125 5122 5120 5117 5114 5112 5110 5107 5105 5102 5100 5097 5094 5092 5090 5087 5085 5083 5080 5078 5076 5075 5073 5072 5071 5070 5070 5070 5071